Weather History for KY19 - March, 2013

Change the Weather History Date:

Saturday, March 23, 2013

  Actual Average (KBIS) Record (KBIS)
Temperature  
Mean Temperature 17 °F 33 °F  
Max Temperature 24 °F 44 °F 81 °F (1910)
Min Temperature 10 °F 22 °F -15 °F (1899)
Degree Days  
Heating Degree Days 48 32  
Month to date heating degree days 850  
Since 1 July heating degree days 7281  
Cooling Degree Days 0 0  
Month to date cooling degree days 0  
Year to date cooling degree days 0  
Moisture  
Dew Point 16 °F    
Average Humidity 91    
Maximum Humidity 100    
Minimum Humidity 74    
Precipitation  
Precipitation 0.49 in 0.03 in 0.87 in (1950)
Month to date precipitation 0.61  
Year to date precipitation 1.55  
Snow  
Snow 0.00 in 0.20 in 8.80 in (1950)
Month to date snowfall 7.0  
Since 1 July snowfall 44.5  
Snow Depth -    
Sea Level Pressure  
Sea Level Pressure 30.14 in    
Wind  
Wind Speed 9 mph (NW)    
Max Wind Speed 15 mph    
Max Gust Speed 18 mph    
Visibility 8 miles    
Events Snow    
T = Trace of Precipitation, MM = Missing Value Source: NWS Daily Summary

Daily Weather History Graph

Daily Weather History Graph

Search for Another Location

Airport or City:

Trip Planner

Search our weather history database for the weather conditions in past years. The results will help you decide how hot, cold, wet, or windy it might be!

Date:

Astronomy

Mar. 23, 2013 Rise Set
Actual Time 7:40 AM CDT 8:00 PM CDT
Civil Twilight 7:09 AM CDT 8:31 PM CDT
Nautical Twilight 6:34 AM CDT 9:07 PM CDT
Astronomical Twilight 5:57 AM CDT 9:44 PM CDT
Moon 4:18 PM CDT (3/23) 5:29 AM CDT (3/23)
Length of Visible Light 13h 21m
Length of Day
12h 20m
Waxing Gibbous, 85% of the Moon is Illuminated
Mar 23
Waxing Gibbous
Mar 27
Full
Apr 2
Last Quarter
Apr 10
New
Apr 18
First Quarter

Hourly Weather History & Observations

Time (CDT) Temp. Windchill Dew Point Humidity Pressure Visibility Wind Dir Wind Speed Gust Speed Precip Events Conditions
12:15 AM 19.4 °F 9.5 °F 19.4 °F 100% 30.07 in 10.0 mi ENE 8.1 mph - N/A Snow Light Snow
12:35 AM 17.6 °F 7.3 °F 17.6 °F 100% 30.07 in 10.0 mi East 8.1 mph - N/A Snow Light Snow
12:55 AM 17.6 °F 8.2 °F 17.6 °F 100% 30.08 in 9.0 mi East 6.9 mph - N/A Snow Light Snow
1:15 AM 17.6 °F 8.2 °F 17.6 °F 100% 30.08 in 8.0 mi East 6.9 mph - N/A Snow Light Snow
1:35 AM 17.6 °F 9.3 °F 17.6 °F 100% 30.08 in 8.0 mi East 5.8 mph - 0.01 in Snow Light Snow
1:55 AM 17.6 °F 10.7 °F 17.6 °F 100% 30.08 in 7.0 mi East 4.6 mph - 0.01 in Snow Light Snow
2:15 AM 17.6 °F 10.7 °F 17.6 °F 100% 30.08 in 7.0 mi East 4.6 mph - N/A Snow Light Snow
2:35 AM 17.6 °F 12.3 °F 17.6 °F 100% 30.08 in 8.0 mi ENE 3.5 mph - N/A Snow Light Snow
2:55 AM 17.6 °F - 17.6 °F 100% 30.08 in 9.0 mi Calm Calm - N/A   Overcast
3:15 AM 17.6 °F - 17.6 °F 100% 30.09 in 8.0 mi Calm Calm - N/A Snow Light Snow
3:35 AM 17.6 °F - 17.6 °F 100% 30.09 in 8.0 mi Calm Calm - N/A   Overcast
3:55 AM 17.6 °F 12.3 °F 17.6 °F 100% 30.10 in 7.0 mi WSW 3.5 mph - N/A   Overcast
4:15 AM 17.6 °F 12.3 °F 17.6 °F 100% 30.10 in 5.0 mi WSW 3.5 mph - N/A Snow Light Snow
4:35 AM 19.4 °F 11.5 °F 19.4 °F 100% 30.10 in 4.0 mi WSW 5.8 mph - 0.01 in Snow Light Snow
4:55 AM 19.4 °F 7.9 °F 19.4 °F 100% 30.09 in 5.0 mi WNW 10.4 mph - 0.03 in Snow Light Snow
5:15 AM 19.4 °F 7.2 °F 19.4 °F 100% 30.09 in 6.0 mi WNW 11.5 mph - N/A Snow Light Snow
5:35 AM 19.4 °F 6.0 °F 17.6 °F 93% 30.09 in 6.0 mi WNW 13.8 mph - 0.02 in Snow Light Snow
5:55 AM 17.6 °F 5.0 °F 17.6 °F 100% 30.10 in 7.0 mi WNW 11.5 mph - 0.03 in Snow Light Snow
6:15 AM 17.6 °F 3.2 °F 17.6 °F 100% 30.10 in 7.0 mi WNW 15.0 mph - N/A Snow Light Snow
6:35 AM 17.6 °F 3.7 °F 17.6 °F 100% 30.10 in 8.0 mi WNW 13.8 mph 18.4 mph 0.01 in Snow Light Snow
6:55 AM 17.6 °F 3.7 °F 17.6 °F 100% 30.11 in 8.0 mi WNW 13.8 mph - 0.02 in Snow Light Snow
7:15 AM 17.6 °F 5.0 °F 15.8 °F 93% 30.12 in 9.0 mi WNW 11.5 mph - N/A Snow Light Snow
7:35 AM 17.6 °F 5.0 °F 15.8 °F 93% 30.12 in 7.0 mi WNW 11.5 mph - N/A Snow Light Snow
7:55 AM 17.6 °F 4.3 °F 15.8 °F 93% 30.13 in 6.0 mi NW 12.7 mph - 0.01 in Snow Light Snow
8:15 AM 15.8 °F 2.1 °F 15.8 °F 100% 30.13 in 4.0 mi WNW 12.7 mph - 0.01 in Snow Light Snow
8:35 AM 15.8 °F 2.7 °F 15.8 °F 100% 30.14 in 5.0 mi WNW 11.5 mph - 0.03 in Snow Light Snow
8:55 AM 15.8 °F 2.1 °F 15.8 °F 100% 30.14 in 5.0 mi WNW 12.7 mph - 0.05 in Snow Light Snow
9:15 AM 15.8 °F 2.7 °F 15.8 °F 100% 30.15 in 4.0 mi WNW 11.5 mph - 0.01 in Snow Light Snow
9:35 AM 15.8 °F 1.4 °F 15.8 °F 100% 30.15 in 5.0 mi WNW 13.8 mph - 0.03 in Snow Light Snow
9:55 AM 15.8 °F 0.9 °F 14.0 °F 93% 30.15 in 5.0 mi WNW 15.0 mph - 0.05 in Snow Light Snow
10:15 AM 15.8 °F 0.9 °F 14.0 °F 93% 30.15 in 5.0 mi WNW 15.0 mph - 0.01 in Snow Light Snow
10:35 AM 15.8 °F 0.9 °F 14.0 °F 93% 30.15 in 6.0 mi NW 15.0 mph - 0.02 in Snow Light Snow
10:55 AM 17.6 °F 4.3 °F 14.0 °F 86% 30.16 in 6.0 mi NW 12.7 mph - 0.03 in Snow Light Snow
11:15 AM 17.6 °F 4.3 °F 14.0 °F 86% 30.16 in 10.0 mi WNW 12.7 mph - N/A Snow Light Snow
11:35 AM 17.6 °F 4.3 °F 14.0 °F 86% 30.17 in 10.0 mi WNW 12.7 mph - N/A   Overcast
11:55 AM 17.6 °F 3.7 °F 14.0 °F 86% 30.17 in 10.0 mi NW 13.8 mph - N/A   Mostly Cloudy
12:15 PM 19.4 °F 6.6 °F 15.8 °F 86% 30.17 in 10.0 mi WNW 12.7 mph - N/A   Overcast
12:35 PM 19.4 °F 6.6 °F 15.8 °F 86% 30.17 in 10.0 mi WNW 12.7 mph - N/A   Overcast
12:55 PM 21.2 °F 8.9 °F 15.8 °F 80% 30.17 in 10.0 mi WNW 12.7 mph - N/A   Overcast
1:15 PM 23.0 °F 11.1 °F 15.8 °F 74% 30.17 in 10.0 mi NW 12.7 mph - N/A   Overcast
1:35 PM 23.0 °F 11.1 °F 17.6 °F 80% 30.16 in 10.0 mi NW 12.7 mph - N/A   Mostly Cloudy
1:55 PM 23.0 °F 11.7 °F 17.6 °F 80% 30.16 in 10.0 mi WNW 11.5 mph - N/A   Scattered Clouds
2:15 PM 23.0 °F 11.7 °F 15.8 °F 74% 30.16 in 10.0 mi WNW 11.5 mph - N/A   Mostly Cloudy
2:35 PM 23.0 °F 13.1 °F 15.8 °F 74% 30.15 in 10.0 mi WNW 9.2 mph 18.4 mph N/A   Mostly Cloudy
2:55 PM 23.0 °F 10.6 °F 15.8 °F 74% 30.15 in 10.0 mi NW 13.8 mph - N/A   Mostly Cloudy
3:15 PM 23.0 °F 10.1 °F 15.8 °F 74% 30.15 in 10.0 mi WNW 15.0 mph - N/A   Mostly Cloudy
3:35 PM 23.0 °F 10.6 °F 15.8 °F 74% 30.15 in 10.0 mi WNW 13.8 mph - N/A   Overcast
3:55 PM 23.0 °F 10.1 °F 15.8 °F 74% 30.15 in 10.0 mi NW 15.0 mph - N/A   Mostly Cloudy
4:15 PM 24.8 °F 13.4 °F 17.6 °F 74% 30.15 in 10.0 mi NNW 12.7 mph 17.3 mph N/A   Overcast
4:35 PM 23.0 °F 11.1 °F 17.6 °F 80% 30.15 in 9.0 mi NW 12.7 mph - N/A   Mostly Cloudy
4:55 PM 23.0 °F 11.7 °F 15.8 °F 74% 30.16 in 8.0 mi NW 11.5 mph - N/A Snow Light Snow
5:15 PM 23.0 °F 10.6 °F 17.6 °F 80% 30.16 in 7.0 mi WNW 13.8 mph - N/A Snow Light Snow
5:35 PM 23.0 °F 10.6 °F 15.8 °F 74% 30.16 in 10.0 mi WNW 13.8 mph - N/A Snow Light Snow
5:55 PM 23.0 °F 10.1 °F 17.6 °F 80% 30.17 in 4.0 mi NNW 15.0 mph - 0.03 in Snow Light Snow
6:15 PM 23.0 °F 11.7 °F 17.6 °F 80% 30.17 in 4.0 mi NW 11.5 mph - 0.03 in Snow Light Snow
6:35 PM 23.0 °F 11.7 °F 17.6 °F 80% 30.17 in 9.0 mi NW 11.5 mph - 0.04 in Snow Light Snow
6:55 PM 21.2 °F 8.9 °F 17.6 °F 86% 30.18 in 10.0 mi NNW 12.7 mph - 0.04 in Snow Light Snow
7:15 PM 21.2 °F 10.1 °F 17.6 °F 86% 30.19 in 10.0 mi NNW 10.4 mph - N/A Snow Light Snow
7:35 PM 21.2 °F 10.9 °F 17.6 °F 86% 30.19 in 7.0 mi NW 9.2 mph - N/A Snow Light Snow
7:55 PM 19.4 °F 7.2 °F 19.4 °F 100% 30.19 in 2.0 mi NNW 11.5 mph - 0.04 in Snow Light Snow
8:15 PM 19.4 °F 7.9 °F 17.6 °F 93% 30.19 in 2.0 mi NNW 10.4 mph - 0.08 in Snow Light Snow
8:35 PM 17.6 °F 5.7 °F 15.8 °F 93% 30.19 in 10.0 mi NNW 10.4 mph - 0.09 in Snow Light Snow
8:55 PM 15.8 °F 5.1 °F 15.8 °F 100% 30.20 in 10.0 mi NNW 8.1 mph - 0.09 in   Mostly Cloudy
9:15 PM 14.0 °F 3.9 °F 14.0 °F 100% 30.20 in 10.0 mi NW 6.9 mph - N/A   Mostly Cloudy
9:35 PM 12.2 °F 1.7 °F 12.2 °F 100% 30.21 in 10.0 mi WNW 6.9 mph - N/A   Overcast
9:55 PM 12.2 °F 1.7 °F 10.4 °F 92% 30.21 in 10.0 mi WNW 6.9 mph - N/A   Overcast
10:15 PM 12.2 °F 1.7 °F 10.4 °F 92% 30.21 in 10.0 mi WNW 6.9 mph - N/A   Overcast
10:35 PM 10.4 °F -1.5 °F 10.4 °F 100% 30.21 in 10.0 mi WNW 8.1 mph - N/A Snow Light Snow
10:55 PM 10.4 °F -2.4 °F 10.4 °F 100% 30.20 in 10.0 mi WNW 9.2 mph - N/A Snow Light Snow
11:15 PM 12.2 °F -1.0 °F 12.2 °F 100% 30.20 in 10.0 mi WNW 10.4 mph - N/A Snow Light Snow
11:35 PM 14.0 °F 0.5 °F 14.0 °F 100% 30.20 in 5.0 mi WNW 11.5 mph - 0.04 in Snow Light Snow
11:55 PM 15.8 °F 2.7 °F 14.0 °F 93% 30.19 in 5.0 mi WNW 11.5 mph - 0.06 in Snow Light Snow